Precipitable_Water
0.49 0.50 0.48 0.44 0.44 0.53 0.51 0.50 0.36 0.62 0.71 0.40 0.42 0.33 0.38 0.46 0.45 0.51 0.43 0.43 0.37 0.34 0.34 0.33 0.32 0.34 0.37 0.48 0.46 0.39 0.46 0.40 0.35 0.39 0.49 0.53 0.48 0.45 0.42 0.31 0.29 0.30 0.29 0.25
0.49 0.49 0.46 0.45 0.45 0.55 0.49 0.40 0.43 0.65 0.63 0.29 0.32 0.40 0.42 0.42 0.39 0.40 0.40 0.37 0.40 0.38 0.33 0.28 0.33 0.34 0.43 0.47 0.45 0.41 0.41 0.34 0.27 0.30 0.38 0.44 0.39 0.43 0.43 0.40 0.38 0.29 0.25 0.26
0.49 0.50 0.44 0.42 0.46 0.53 0.56 0.43 0.30 0.44 0.50 0.48 0.38 0.35 0.36 0.37 0.46 0.41 0.41 0.39 0.39 0.34 0.31 0.34 0.31 0.32 0.40 0.46 0.43 0.46 0.44 0.34 0.30 0.24 0.30 0.37 0.33 0.39 0.41 0.38 0.30 0.30 0.26 0.29
0.48 0.51 0.46 0.42 0.41 0.52 0.54 0.44 0.36 0.43 0.33 0.38 0.42 0.42 0.39 0.35 0.36 0.47 0.44 0.37 0.37 0.34 0.29 0.30 0.30 0.34 0.37 0.41 0.43 0.42 0.40 0.27 0.28 0.30 0.32 0.32 0.32 0.33 0.37 0.33 0.34 0.28 0.29 0.28
0.44 0.47 0.45 0.46 0.41 0.49 0.41 0.38 0.39 0.43 0.41 0.42 0.40 0.39 0.37 0.38 0.39 0.42 0.40 0.39 0.38 0.37 0.33 0.34 0.30 0.33 0.35 0.34 0.37 0.36 0.38 0.28 0.28 0.24 0.29 0.29 0.26 0.31 0.33 0.34 0.34 0.34 0.34 0.31
0.45 0.45 0.44 0.45 0.45 0.45 0.37 0.42 0.50 0.45 0.39 0.37 0.34 0.36 0.38 0.40 0.44 0.48 0.48 0.45 0.43 0.39 0.37 0.41 0.41 0.41 0.41 0.39 0.34 0.34 0.34 0.30 0.26 0.23 0.27 0.27 0.22 0.27 0.30 0.33 0.34 0.33 0.28 0.33
0.46 0.44 0.42 0.42 0.40 0.42 0.43 0.44 0.44 0.36 0.30 0.36 0.35 0.39 0.41 0.42 0.46 0.43 0.48 0.49 0.44 0.49 0.57 0.52 0.47 0.44 0.42 0.40 0.37 0.40 0.34 0.32 0.30 0.24 0.25 0.17 0.30 0.38 0.37 0.34 0.36 0.37 0.35 0.37
0.47 0.42 0.42 0.43 0.45 0.41 0.41 0.44 0.40 0.39 0.24 0.31 0.36 0.38 0.40 0.43 0.48 0.47 0.47 0.53 0.58 0.60 0.54 0.43 0.35 0.35 0.35 0.37 0.41 0.37 0.38 0.33 0.27 0.21 0.22 0.27 0.32 0.36 0.35 0.33 0.32 0.39 0.37 0.40
0.50 0.46 0.41 0.42 0.44 0.45 0.40 0.42 0.45 0.40 0.34 0.33 0.36 0.35 0.39 0.36 0.39 0.45 0.49 0.57 0.62 0.58 0.49 0.42 0.30 0.26 0.30 0.29 0.32 0.40 0.37 0.37 0.29 0.26 0.18 0.18 0.35 0.44 0.47 0.46 0.32 0.42 0.41 0.42
0.52 0.50 0.46 0.42 0.44 0.45 0.43 0.41 0.47 0.41 0.33 0.35 0.33 0.28 0.32 0.44 0.42 0.40 0.48 0.50 0.50 0.56 0.44 0.37 0.32 0.31 0.36 0.27 0.25 0.28 0.29 0.29 0.24 0.24 0.23 0.27 0.38 0.47 0.53 0.32 0.37 0.52 0.51 0.52
0.53 0.51 0.50 0.46 0.46 0.50 0.47 0.42 0.50 0.42 0.35 0.37 0.35 0.30 0.26 0.31 0.41 0.36 0.48 0.46 0.47 0.44 0.37 0.37 0.37 0.34 0.34 0.31 0.33 0.29 0.27 0.27 0.25 0.27 0.23 0.19 0.41 0.44 0.35 0.50 0.59 0.59 0.59 0.61
0.58 0.56 0.51 0.50 0.48 0.50 0.52 0.41 0.52 0.54 0.43 0.41 0.47 0.41 0.37 0.27 0.34 0.42 0.48 0.47 0.50 0.52 0.41 0.41 0.42 0.36 0.38 0.34 0.27 0.38 0.27 0.32 0.29 0.28 0.27 0.39 0.45 0.46 0.52 0.56 0.56 0.62 0.62 0.63
0.63 0.63 0.60 0.55 0.54 0.54 0.51 0.46 0.51 0.52 0.43 0.40 0.41 0.41 0.45 0.44 0.33 0.40 0.37 0.45 0.55 0.56 0.62 0.48 0.45 0.36 0.40 0.31 0.32 0.35 0.39 0.43 0.35 0.34 0.39 0.40 0.44 0.51 0.53 0.54 0.54 0.61 0.66 0.67
0.64 0.64 0.65 0.62 0.60 0.56 0.56 0.49 0.56 0.56 0.46 0.33 0.33 0.48 0.44 0.55 0.53 0.38 0.38 0.50 0.58 0.58 0.61 0.49 0.42 0.36 0.41 0.33 0.37 0.37 0.42 0.44 0.39 0.37 0.43 0.45 0.47 0.49 0.54 0.56 0.59 0.61 0.67 0.69
0.61 0.69 0.70 0.65 0.59 0.58 0.60 0.56 0.59 0.61 0.46 0.31 0.32 0.39 0.41 0.46 0.44 0.51 0.39 0.41 0.47 0.48 0.47 0.45 0.39 0.43 0.40 0.37 0.36 0.31 0.38 0.38 0.36 0.35 0.44 0.44 0.48 0.54 0.58 0.55 0.55 0.59 0.59 0.61
0.63 0.68 0.69 0.66 0.58 0.61 0.55 0.42 0.56 0.61 0.58 0.37 0.24 0.29 0.25 0.30 0.45 0.41 0.52 0.53 0.49 0.47 0.46 0.44 0.49 0.53 0.43 0.32 0.29 0.36 0.40 0.41 0.42 0.39 0.47 0.46 0.49 0.52 0.55 0.52 0.54 0.56 0.58 0.59
0.64 0.72 0.69 0.62 0.62 0.59 0.49 0.43 0.55 0.60 0.54 0.35 0.23 0.18 0.33 0.42 0.39 0.40 0.52 0.56 0.53 0.51 0.47 0.42 0.47 0.49 0.49 0.38 0.30 0.38 0.41 0.43 0.43 0.46 0.46 0.40 0.44 0.44 0.51 0.52 0.54 0.57 0.57 0.59
0.67 0.68 0.64 0.64 0.61 0.63 0.53 0.59 0.60 0.59 0.44 0.36 0.20 0.21 0.32 0.52 0.39 0.35 0.50 0.47 0.49 0.52 0.51 0.48 0.43 0.45 0.45 0.33 0.39 0.42 0.44 0.45 0.46 0.46 0.49 0.47 0.49 0.50 0.50 0.51 0.51 0.51 0.52 0.55
0.65 0.65 0.62 0.59 0.54 0.47 0.51 0.61 0.63 0.60 0.44 0.27 0.27 0.26 0.26 0.52 0.48 0.47 0.51 0.50 0.38 0.51 0.45 0.45 0.49 0.42 0.34 0.37 0.40 0.41 0.44 0.44 0.44 0.48 0.48 0.47 0.46 0.47 0.48 0.49 0.49 0.48 0.50 0.53
0.64 0.61 0.50 0.41 0.50 0.63 0.58 0.52 0.44 0.41 0.40 0.38 0.31 0.37 0.33 0.44 0.45 0.44 0.42 0.47 0.39 0.34 0.41 0.51 0.40 0.35 0.44 0.47 0.47 0.48 0.49 0.49 0.49 0.44 0.41 0.44 0.45 0.46 0.48 0.49 0.52 0.53 0.53 0.54
0.55 0.47 0.43 0.55 0.62 0.53 0.45 0.37 0.34 0.35 0.31 0.37 0.38 0.40 0.38 0.52 0.38 0.40 0.48 0.42 0.42 0.32 0.39 0.40 0.36 0.32 0.41 0.48 0.48 0.51 0.51 0.52 0.51 0.51 0.50 0.50 0.49 0.48 0.48 0.51 0.54 0.55 0.55 0.55
0.54 0.53 0.57 0.54 0.45 0.39 0.34 0.33 0.35 0.32 0.30 0.41 0.40 0.44 0.47 0.50 0.54 0.44 0.46 0.39 0.41 0.31 0.46 0.37 0.29 0.38 0.46 0.48 0.50 0.51 0.53 0.53 0.52 0.53 0.51 0.51 0.51 0.52 0.52 0.54 0.55 0.57 0.58 0.57
0.56 0.47 0.41 0.39 0.37 0.27 0.27 0.25 0.29 0.31 0.41 0.44 0.45 0.41 0.48 0.51 0.53 0.46 0.43 0.36 0.34 0.46 0.36 0.31 0.34 0.44 0.48 0.50 0.51 0.52 0.54 0.55 0.54 0.53 0.54 0.53 0.52 0.54 0.54 0.54 0.57 0.58 0.58 0.58
0.39 0.34 0.28 0.30 0.28 0.29 0.32 0.31 0.33 0.40 0.44 0.44 0.45 0.43 0.44 0.48 0.43 0.44 0.35 0.40 0.42 0.31 0.28 0.31 0.44 0.51 0.53 0.55 0.56 0.55 0.55 0.55 0.54 0.54 0.54 0.54 0.55 0.55 0.57 0.58 0.59 0.59 0.59 0.61
0.36 0.35 0.27 0.29 0.34 0.37 0.38 0.40 0.38 0.41 0.44 0.43 0.42 0.44 0.44 0.41 0.39 0.41 0.39 0.34 0.30 0.33 0.32 0.41 0.49 0.55 0.55 0.54 0.56 0.56 0.56 0.57 0.57 0.58 0.57 0.55 0.57 0.57 0.58 0.60 0.61 0.61 0.61 0.63
0.38 0.36 0.31 0.34 0.30 0.30 0.33 0.34 0.34 0.44 0.44 0.44 0.44 0.38 0.35 0.34 0.37 0.33 0.32 0.31 0.30 0.36 0.43 0.47 0.50 0.51 0.52 0.54 0.56 0.57 0.58 0.57 0.54 0.52 0.49 0.48 0.46 0.47 0.51 0.55 0.60 0.61 0.62 0.61
0.31 0.27 0.32 0.32 0.30 0.29 0.31 0.31 0.33 0.42 0.38 0.33 0.36 0.31 0.31 0.38 0.32 0.30 0.36 0.34 0.40 0.44 0.46 0.47 0.47 0.45 0.47 0.51 0.53 0.53 0.51 0.50 0.49 0.47 0.46 0.44 0.41 0.42 0.41 0.39 0.44 0.52 0.61 0.62
Wind_Speed
38 38 39 39 35 30 21 16 14 14 10 11 9 9 8 6 5 5 3 4 7 7 7 6 6 7 7 7 6 6 5 8 9 7 8 9 9 14 15 13 11 9 8 8
38 38 39 38 35 29 19 15 13 12 10 8 9 8 7 4 6 5 4 4 4 3 3 4 4 5 6 6 4 3 6 5 6 7 7 8 10 12 11 10 9 10 8 8
38 38 38 37 34 27 18 13 12 11 11 8 7 6 6 5 3 3 2 1 1 1 2 2 4 5 5 5 3 2 2 2 4 6 5 6 8 12 11 11 10 9 10 8
37 38 37 37 35 27 17 14 11 11 10 10 9 6 6 6 5 5 3 1 1 2 2 2 3 4 6 5 5 4 3 4 4 4 5 6 9 10 12 13 13 10 8 9
37 37 37 36 34 27 18 14 12 12 10 11 10 8 5 6 6 5 3 3 3 2 1 3 4 6 6 5 5 5 5 4 4 6 7 9 10 11 13 14 15 15 12 9
37 37 38 36 33 27 18 16 14 11 11 11 9 7 6 7 8 5 4 6 6 2 2 3 4 5 5 4 5 6 5 5 6 6 6 8 10 14 14 13 14 17 16 15
36 38 37 36 33 28 21 17 14 12 12 12 10 10 9 9 8 8 7 6 6 4 4 5 4 4 5 5 5 6 7 7 6 6 6 7 7 6 9 14 13 14 16 13
36 37 37 36 33 30 23 20 16 14 13 14 14 11 12 10 10 8 7 4 5 5 5 5 5 6 6 6 5 6 7 8 6 6 7 6 6 6 8 9 10 14 14 13
37 37 37 36 35 31 27 22 19 17 15 11 14 15 14 11 10 9 6 5 4 5 6 6 6 7 7 6 6 7 7 7 7 4 6 5 4 5 6 7 6 6 12 12
37 37 38 37 36 34 30 26 22 19 18 16 13 13 13 13 11 11 10 7 8 7 6 7 7 6 5 6 7 7 7 7 9 8 6 6 6 6 6 6 5 6 7 9
39 39 40 39 38 37 34 29 24 20 19 21 19 15 15 16 15 12 10 9 9 8 8 7 7 7 7 6 6 7 8 7 8 8 7 8 6 6 5 5 6 4 5 6
42 41 42 41 40 39 36 29 24 22 21 21 23 24 23 22 21 16 14 12 9 8 8 8 7 8 8 8 7 6 7 8 7 8 7 6 7 5 6 6 5 6 6 6
43 43 43 43 41 40 37 29 24 21 20 22 18 18 19 19 22 23 18 16 14 11 9 9 8 9 8 9 10 10 10 9 8 7 8 9 9 8 7 7 8 8 8 7
45 44 43 42 41 38 32 25 21 19 17 17 15 15 18 17 18 22 25 21 16 15 13 12 10 9 8 9 9 9 9 9 11 11 11 10 11 10 9 8 8 10 11 11
46 44 42 42 39 33 28 23 20 18 16 16 18 23 20 20 26 21 23 24 22 17 15 14 13 12 10 10 9 11 12 12 11 10 9 8 7 9 10 10 10 11 12 13
45 43 38 35 33 26 21 15 12 11 13 14 13 13 18 18 18 22 21 22 22 20 19 17 15 13 12 10 9 10 8 11 12 12 10 11 11 11 12 12 12 13 13 14
44 33 32 30 25 21 16 14 12 13 12 12 12 11 10 10 14 17 19 20 20 20 20 20 19 16 15 16 15 13 11 11 11 10 11 13 13 13 13 14 14 14 14 14
30 25 25 23 20 17 17 17 15 11 11 12 10 11 11 10 12 13 17 18 20 21 20 18 18 18 19 18 16 16 17 16 15 14 14 15 16 16 16 16 17 17 17 16
20 19 17 16 15 14 11 10 8 8 9 9 8 8 8 8 11 13 13 15 17 18 19 19 17 18 18 18 18 18 17 16 16 15 15 16 16 16 16 16 17 18 18 18
11 11 12 11 10 7 6 5 5 6 6 7 6 6 6 6 7 9 11 12 13 13 17 14 19 20 19 17 17 17 17 17 17 17 18 17 17 17 17 17 17 18 19 20
10 10 9 7 5 5 5 5 5 4 4 4 4 5 6 5 6 8 9 6 10 11 11 12 14 15 14 15 16 17 18 19 19 19 19 19 19 19 19 20 19 19 20 21
8 7 6 4 5 5 5 5 4 4 4 3 3 3 4 3 5 7 6 8 4 5 7 7 8 9 9 10 11 12 14 15 15 15 16 17 18 19 19 19 19 19 19 21
6 6 5 5 4 6 5 5 4 4 4 3 4 5 3 3 5 4 5 7 8 5 5 7 8 7 9 10 9 9 9 10 11 12 14 15 17 18 18 19 19 19 19 20
7 6 6 6 5 5 5 6 6 6 6 7 7 4 4 3 5 5 6 5 6 6 6 6 4 4 4 6 7 7 7 6 5 6 7 9 10 12 14 15 17 17 18 18
9 7 8 7 7 7 8 8 8 9 9 9 9 8 7 6 5 5 6 6 6 6 5 4 4 3 1 1 3 5 5 3 2 3 4 5 7 7 8 9 11 13 14 15
10 9 8 8 7 8 9 10 10 9 10 10 10 11 10 9 7 7 7 6 5 4 4 4 3 3 2 3 3 3 3 3 3 5 6 7 7 7 8 8 9 10 11 12
10 9 10 11 11 12 12 12 11 12 11 10 10 11 12 11 10 9 9 8 7 8 7 6 5 5 4 4 4 5 5 5 6 7 8 9 9 9 9 9 9 10 9 9
Wind_Direction
351 352 353 353 352 351 352 352 2 358 2 12 21 29 30 45 44 63 49 51 74 85 100 86 110 113 127 132 127 122 113 135 161 161 176 194 208 204 206 207 222 221 224 239
351 351 351 352 352 352 347 349 351 359 353 2 8 9 10 24 22 31 32 69 81 95 112 141 128 139 140 150 127 134 156 155 162 181 194 205 213 208 208 208 216 224 230 228
349 352 352 351 351 349 344 344 347 346 2 360 345 346 345 3 26 9 14 51 235 160 84 91 158 149 174 186 177 206 211 178 187 201 194 191 206 210 204 205 211 218 222 202
350 352 353 351 350 348 342 340 339 343 340 345 340 339 335 342 359 352 351 317 310 262 215 183 178 181 183 192 207 224 237 214 214 215 209 217 215 217 209 215 223 215 238 228
351 352 352 352 352 347 344 333 327 323 315 324 336 342 329 324 326 329 341 357 328 335 211 242 227 209 212 218 235 238 245 226 225 243 231 233 233 230 223 218 229 235 235 240
349 351 351 351 351 349 341 333 321 308 302 311 318 320 321 301 308 274 299 292 291 277 263 257 248 225 220 233 239 225 234 219 226 235 239 251 250 234 225 223 226 225 227 229
346 347 347 348 349 346 338 329 317 306 293 295 302 295 298 296 299 283 292 285 275 251 251 247 216 209 218 229 242 238 227 227 229 240 237 240 222 240 227 223 227 227 232 231
342 344 344 345 343 344 334 327 316 302 292 285 283 290 286 290 281 273 278 282 263 247 247 244 238 235 239 237 245 233 235 230 228 232 233 246 235 225 218 207 232 227 224 229
334 335 338 339 339 335 331 322 312 299 289 278 284 278 275 273 274 275 258 248 247 247 250 246 252 241 238 226 233 232 232 234 220 218 233 236 214 212 210 215 218 217 208 218
328 328 329 330 330 330 324 314 306 293 285 274 279 268 265 265 261 257 266 255 250 244 254 251 241 240 237 231 226 214 220 220 220 228 233 247 213 200 204 220 207 196 206 220
321 321 323 322 322 322 322 309 300 289 282 277 268 260 259 257 253 251 256 256 245 246 247 251 244 237 231 242 232 217 211 214 217 220 228 239 215 212 228 205 207 206 216 222
314 315 317 317 316 317 316 306 294 283 276 272 270 264 262 257 249 248 245 246 252 248 251 248 251 241 232 238 236 226 232 222 221 214 227 229 221 214 215 225 229 233 227 231
310 310 313 313 314 313 311 302 291 280 276 282 263 251 256 252 245 239 239 240 242 243 250 250 248 243 241 238 239 233 233 230 234 240 238 228 227 228 238 243 239 240 238 242
308 307 308 309 310 311 307 297 287 279 276 276 272 261 253 252 250 239 233 236 239 243 245 242 244 245 241 247 243 242 238 227 234 241 248 244 242 239 237 247 251 247 247 249
303 303 302 306 307 305 303 293 282 272 269 271 278 281 261 258 243 240 232 233 235 238 239 238 240 243 248 248 250 247 238 236 237 245 248 242 247 235 248 255 257 258 257 256
299 299 298 301 305 303 301 294 283 270 270 277 279 277 271 258 243 229 233 230 231 232 234 238 243 242 241 243 241 245 249 237 241 249 250 250 250 254 256 259 261 261 261 260
300 288 295 296 296 293 288 285 279 276 281 281 280 273 270 258 237 231 231 228 230 230 234 236 239 242 243 247 244 249 247 245 248 251 255 258 261 258 262 262 263 262 261 259
294 289 291 288 290 286 282 276 268 262 278 279 275 270 269 256 240 236 229 228 229 229 234 238 240 243 242 248 249 249 253 251 251 256 260 265 265 266 265 264 264 261 260 258
291 291 293 285 284 284 276 279 247 255 268 284 273 274 271 276 245 229 227 226 228 230 233 234 239 242 243 249 250 253 250 253 257 256 262 267 266 267 269 267 265 260 259 256
291 291 295 291 289 268 262 261 259 270 271 266 272 266 268 279 240 230 215 224 223 228 229 232 239 249 252 250 252 250 253 254 256 258 263 263 266 268 269 269 268 264 260 259
288 293 289 279 266 262 251 250 261 259 276 258 269 255 283 281 231 211 207 217 218 226 226 230 242 253 254 252 253 252 253 254 256 258 260 263 268 270 270 267 267 267 265 262
288 281 283 249 236 243 247 250 254 245 260 243 262 295 288 247 202 203 209 203 210 208 204 229 249 257 253 250 250 251 249 249 253 258 261 263 268 270 269 267 266 267 268 265
275 277 266 242 223 230 246 239 251 251 249 249 296 310 272 208 202 215 212 205 211 216 230 253 267 263 257 251 249 244 247 250 255 261 265 269 271 270 267 266 267 269 270 267
260 253 247 225 214 232 248 263 265 276 275 265 276 287 245 241 232 224 215 206 209 228 247 254 258 296 253 237 238 236 235 237 250 270 280 282 279 274 270 269 270 271 270 269
249 233 235 230 241 250 264 274 277 272 273 269 260 258 241 242 234 223 224 217 229 238 244 258 258 263 197 161 185 170 175 193 251 290 307 314 308 298 291 285 280 276 272 269
241 241 240 240 258 268 267 269 273 273 272 267 252 244 242 240 239 235 230 238 233 236 243 260 245 221 204 196 199 208 212 241 276 299 313 317 318 312 307 302 299 293 283 274
239 245 248 258 266 270 276 278 277 273 266 259 254 246 238 241 238 238 232 236 244 249 256 256 242 233 225 230 237 245 256 270 284 296 303 309 313 312 311 310 305 302 296 284